Вернуться в каталог

STARLINK-30186

АктивенСвязьVLEO
NORAD 57470·PAYLOAD·🇺🇸 United States

Запущен Jul 28, 2023 с Cape Canaveral Space Force Station

Loading…

Ближайшие Пролёты (ближайшие 24 часа)

TLE

СвежийSource: CelesTrak SupGP

Эпоха: Sep 14, 2026, 21:15 UTC

1 57470C 23107P   26257.88590278  .00026933  00000+0  23150-3 0  2578
2 57470  42.9999 331.3639 0004046  14.2164  83.7571 15.68377815    10

Отслеживайте STARLINK-30186 в реальном времени с AllMySat

Download on the App Store